Regional Weather Roundup
Issued by NWS Burlington, VT

Current Version | Previous Version | Text Only | Print | Product List | Glossary On
Versions: 1 2 3 4 5 6 7 8 9 10 11 12 13 14 15 16 17 18 19 20 21 22 23 24 25 26 27 28 29 30 31 32 33 34 35 36 37 38 39 40 41 42 43 44 45 46 47 48 49 50
000 ASUS41 KBTV 301330 RWRBTV VERMONT REGIONAL WEATHER ROUNDUP NATIONAL WEATHER SERVICE BURLINGTON VT 900 AM EDT THU MAR 30 2017 NOTE: "FAIR" INDICATES FEW OR NO CLOUDS BELOW 12,000 FEET WITH NO SIGNIFICANT WEATHER AND/OR OBSTRUCTIONS TO VISIBILITY. * THESE REPORTS ARE NOT UNDER NWS QUALITY CONTROL AND/OR DO NOT REPORT WEATHER SUCH AS PRECIPITATION AND FOG. VTZ001>019-301400- _____VERMONT_____ CITY SKY/WX TMP DP RH WIND PRES REMARKS BURLINGTON MOSUNNY 35 19 52 N12 30.31R WCI 27 MONTPELIER SUNNY 30 17 58 N10 30.28R WCI 21 MORRISVILLE SUNNY 31 16 54 N9 30.29R WCI 23 ST. JOHNSBURY* N/A 33 19 56 MISG 30.24R LYNDONVILLE* FAIR 30 18 62 NW8 30.25R WCI 22 MIDDLEBURY* FAIR 34 17 50 N10 30.28F WCI 26 RUTLAND* SUNNY 33 17 51 NW13G20 30.27R WCI 24 SPRINGFIELD CLOUDY 34 16 47 VRB6 30.25S WCI 29 HIGHGATE* FAIR 33 20 58 N12 30.31F WCI 24 NEWPORT* FAIR 30 19 65 N8 30.26R WCI 22 BENNINGTON SUNNY 34 19 54 N15G21 30.25S WCI 24 MT. MANSFIELD* N/A 16 N/A N/A NW17 N/A WCI 0 _____LAKE CHAMPLAIN_____ CITY SKY/WX TMP DP RH WIND PRES REMARKS COLCHESTER RF* N/A 34 23 64 N15 N/A WCI 24 $$ NYZ007-026>031-035-052-083-087-301400- _____NORTHERN NEW YORK_____ CITY SKY/WX TMP DP RH WIND PRES REMARKS PLATTSBURGH SUNNY 35 17 47 N15 30.31S WCI 25 SARANAC LAKE MOSUNNY 27 17 66 NE8 30.21F WCI 19 MASSENA SUNNY 35 21 56 NE10 30.33F WCI 27 POTSDAM* SUNNY 30 27 86 CALM 30.31F WATERTOWN CLOUDY 31 26 82 NE3 30.31S FT DRUM CLOUDY 31 21 65 NE6 30.28F WCI 26 ALBANY MOSUNNY 38 21 50 N6 30.30S GLENS FALLS SUNNY 36 19 50 N7 30.30R WCI 30 $$ NHZ002-005-011-301400- _____NEW HAMPSHIRE_____ CITY SKY/WX TMP DP RH WIND PRES REMARKS LEBANON CLOUDY 35 19 52 NW12 30.25R WCI 27 KEENE SUNNY 36 19 50 N14 30.25R WCI 27 MT WASHINGTON FOG 7 7 100 N26 N/A VSB 1/8 WCI -16 PLYMOUTH FAIR 35 18 49 NW9 30.24R WCI 28 WHITEFIELD MOSUNNY 30 17 58 NW8 30.23R WCI 22 $$ _____REGIONAL QUEBEC LOCATIONS_____ CITY SKY/WX TMP DP RH WIND PRES REMARKS MONTREAL MOSUNNY 34 16 47 N10G17 30.32F WCI 26 QUEBEC CITY MOSUNNY 32 19 59 N17 30.25R WCI 21 SHERBROOKE SUNNY 28 18 64 NW7 30.24R WCI 21 _____REGIONAL ONTARIO LOCATIONS_____ CITY SKY/WX TMP DP RH WIND PRES REMARKS OTTAWA MOSUNNY 34 21 60 N8 30.33F WCI 27 ______KEY______ VSB - VISIBILITY IN MILES WCI - WIND CHILL INDEX HX - HEAT INDEX $$ NNNN

USA.gov is the U.S. government's official web portal to all federal, state and local government web resources and services.